�N����,����,�~����,�C��,���x,�C��,����,���ϕ���,�ő�u�ԕ���,�ő厞����,���˗�,�I�_���x,�n�����x,�ő啗���N��,DTYPE
"21/08/22","00:10",0.0,24.1,94.2,1008.8,289.1,0.8,1.4,246.7,0.00,23.1,25.2,"00:07:04",1
"21/08/22","00:20",0.0,24.0,94.2,1008.1,309.2,0.8,1.2,333.9,0.00,23.0,25.1,"00:13:04",1
"21/08/22","00:30",0.0,24.1,94.4,1008.6,298.7,0.7,1.2,266.4,0.00,23.2,25.2,"00:27:36",1
"21/08/22","00:40",0.0,24.0,94.4,1008.3,321.9,0.6,1.1,353.8,0.00,23.1,25.2,"00:31:44",1
"21/08/22","00:50",0.0,23.9,94.5,1008.6,315.1,0.5,1.1,261.1,0.00,23.0,24.9,"00:47:28",1
"21/08/22","01:00",0.0,23.9,94.5,1008.6,315.0,0.6,0.9,323.7,0.00,23.0,24.9,"00:57:52",1
"21/08/22","01:10",0.0,23.8,94.6,1008.3,319.4,0.8,1.3,312.4,0.00,22.9,25.2,"01:03:04",1
"21/08/22","01:20",0.0,23.8,94.8,1008.6,322.1,0.5,1.1,340.1,0.00,23.0,25.0,"01:19:52",1
"21/08/22","01:30",0.0,23.8,94.8,1008.3,329.4,0.8,1.6,332.4,0.00,23.0,24.9,"01:20:40",1
"21/08/22","01:40",0.0,23.9,94.9,1008.3,331.2,0.7,1.1,346.5,0.00,23.1,24.9,"01:39:12",1
"21/08/22","01:50",0.0,23.8,94.9,1007.8,289.4,0.6,1.0,298.8,0.00,23.0,24.9,"01:40:16",1
"21/08/22","02:00",0.0,23.8,94.9,1008.3,309.4,0.6,0.9,307.3,0.00,23.0,25.0,"01:54:56",1
"21/08/22","02:10",0.0,23.8,95.0,1008.3,325.2,0.8,1.2,335.2,0.00,23.0,25.2,"02:03:44",1
"21/08/22","02:20",0.0,23.9,95.0,1007.8,341.8,0.6,1.1,358.1,0.00,23.1,24.9,"02:19:04",1
"21/08/22","02:30",0.0,23.9,95.1,1008.3,284.9,0.6,1.1,260.5,0.00,23.1,24.9,"02:28:32",1
"21/08/22","02:40",0.2,23.9,95.1,1008.3,329.3,0.5,1.0,323.3,0.00,23.1,24.9,"02:31:04",1
"21/08/22","02:50",0.0,23.8,95.1,1008.6,314.8,0.5,1.0,329.8,0.00,23.0,24.9,"02:40:24",1
"21/08/22","03:00",0.0,23.9,95.2,1008.3,296.7,0.7,1.0,309.9,0.00,23.1,25.0,"02:55:36",1
"21/08/22","03:10",0.0,23.8,95.2,1008.3,318.3,0.6,0.9,346.0,0.00,23.0,24.9,"03:06:00",1
"21/08/22","03:20",0.0,23.9,95.3,1008.1,342.2,0.7,1.6,341.7,0.00,23.1,24.9,"03:11:44",1
"21/08/22","03:30",0.0,23.9,95.3,1008.3,335.7,0.7,1.4,326.0,0.00,23.1,25.0,"03:29:52",1
"21/08/22","03:40",0.0,23.8,95.4,1008.1,325.7,1.0,1.7,331.5,0.00,23.1,24.9,"03:30:56",1
"21/08/22","03:50",0.0,23.8,95.4,1008.1,291.2,0.7,1.1,320.6,0.00,23.1,25.0,"03:40:08",1
"21/08/22","04:00",0.0,23.8,95.4,1008.1,282.5,0.7,1.1,328.3,0.00,23.1,24.9,"03:59:44",1
"21/08/22","04:10",0.0,23.8,95.4,1007.8,317.9,0.5,1.0,336.6,0.00,23.1,24.8,"04:00:08",1
"21/08/22","04:20",0.0,23.8,95.5,1008.1,320.1,0.6,0.9,309.1,0.00,23.1,24.9,"04:14:08",1
"21/08/22","04:30",0.0,23.9,95.6,1007.6,327.9,0.8,1.4,248.6,0.00,23.2,25.0,"04:24:40",1
"21/08/22","04:40",0.0,23.8,95.6,1007.8,320.2,0.8,1.2,320.5,0.00,23.1,25.0,"04:38:56",1
"21/08/22","04:50",0.0,23.8,95.6,1007.8,301.4,0.7,1.1,244.2,0.00,23.1,24.9,"04:41:28",1
"21/08/22","05:00",0.0,23.7,95.6,1007.6,337.2,0.8,1.2,332.3,0.00,23.0,24.8,"04:56:08",1
"21/08/22","05:10",0.0,23.6,95.7,1008.1,335.8,0.8,1.3,308.3,0.00,22.9,25.0,"05:08:48",1
"21/08/22","05:20",0.0,23.6,95.8,1007.8,287.9,0.7,1.3,249.7,0.00,22.9,24.8,"05:15:12",1
"21/08/22","05:30",0.0,23.6,95.8,1008.1,321.8,0.5,0.9,337.2,0.00,22.9,24.7,"05:20:40",1
"21/08/22","05:40",0.0,23.5,95.9,1007.8,315.3,0.7,1.1,342.0,0.00,22.8,24.7,"05:32:00",1
"21/08/22","05:50",0.0,23.6,95.9,1007.8,297.1,0.5,1.0,276.9,0.00,22.9,24.7,"05:40:48",1
"21/08/22","06:00",0.0,23.7,95.9,1007.8,332.2,0.5,1.2,327.4,0.00,23.0,24.7,"05:57:36",1
"21/08/22","06:10",0.0,23.8,96.0,1008.1,314.4,0.1,0.6,333.6,0.00,23.2,24.7,"06:00:08",1
"21/08/22","06:20",0.0,24.0,96.0,1007.8,335.9,0.6,1.0,305.9,0.02,23.4,24.7,"06:12:24",1
"21/08/22","06:30",0.0,24.2,96.0,1008.1,46.5,0.1,0.5,312.9,0.02,23.6,24.7,"06:20:40",1
"21/08/22","06:40",0.0,24.3,95.9,1008.3,294.7,0.1,0.4,292.3,0.02,23.6,24.8,"06:31:20",1
"21/08/22","06:50",0.0,24.3,96.0,1008.1,281.0,0.3,0.9,312.8,0.02,23.7,24.7,"06:48:48",1
"21/08/22","07:00",0.0,24.4,95.9,1008.3,281.4,0.6,0.9,256.5,0.04,23.7,24.8,"06:58:32",1
"21/08/22","07:10",0.0,24.5,95.9,1008.3,286.8,0.7,1.1,259.1,0.04,23.8,24.9,"07:01:28",1
"21/08/22","07:20",0.0,24.6,95.9,1008.6,305.4,0.6,1.1,252.8,0.03,23.9,24.8,"07:16:32",1
"21/08/22","07:30",0.0,24.7,95.9,1008.1,303.8,0.2,0.9,311.3,0.02,24.0,24.8,"07:20:08",1
"21/08/22","07:40",0.0,25.4,96.1,1008.3,312.1,0.5,1.1,328.4,0.12,24.8,24.8,"07:35:44",1
"21/08/22","07:50",0.0,25.6,95.6,1008.3,264.4,0.5,1.2,334.1,0.13,24.9,25.0,"07:41:44",1
"21/08/22","08:00",0.0,25.8,95.7,1007.8,303.3,0.5,1.4,339.5,0.07,25.1,25.0,"07:54:08",1
"21/08/22","08:10",0.0,26.0,95.5,1008.1,223.0,0.5,1.3,240.0,0.10,25.3,24.7,"08:02:24",1
"21/08/22","08:20",0.0,26.2,95.4,1008.3,289.6,0.3,1.4,331.1,0.06,25.4,24.9,"08:19:28",1
"21/08/22","08:30",0.0,26.2,95.5,1008.3,319.6,0.6,1.1,322.9,0.09,25.5,24.9,"08:20:32",1
"21/08/22","08:40",0.0,26.4,95.4,1008.6,309.1,0.2,1.0,355.3,0.08,25.6,25.0,"08:30:02",1
"21/08/22","08:50",0.0,26.1,94.9,1008.6,354.1,0.5,1.3,8.5,0.11,25.3,24.9,"08:42:24",1
"21/08/22","09:00",0.0,26.3,94.6,1008.6,197.8,0.2,0.9,230.0,0.10,25.4,25.2,"08:56:08",1
"21/08/22","09:10",0.0,26.1,94.7,1008.3,19.9,0.5,1.1,352.5,0.13,25.2,25.0,"09:02:32",1
"21/08/22","09:20",0.0,26.2,93.4,1008.1,132.0,0.6,1.3,217.6,0.16,25.1,25.1,"09:10:02",1
"21/08/22","09:30",0.0,27.1,93.5,1008.1,196.1,0.5,1.6,242.5,0.33,26.0,25.0,"09:25:44",1
"21/08/22","09:40",0.0,27.0,92.0,1008.6,157.1,0.7,1.8,209.7,0.23,25.6,25.1,"09:31:28",1
"21/08/22","09:50",0.0,27.0,91.4,1008.3,162.5,0.7,1.9,156.5,0.13,25.5,24.9,"09:43:04",1
"21/08/22","10:00",0.0,27.2,89.7,1008.3,208.4,0.6,2.1,218.7,0.14,25.4,25.1,"09:58:16",1
"21/08/22","10:10",0.0,27.8,87.9,1008.6,155.5,0.8,2.0,125.8,0.21,25.6,25.2,"10:02:48",1
"21/08/22","10:20",0.0,27.9,85.2,1008.3,187.5,1.0,2.4,216.1,0.15,25.2,25.3,"10:13:20",1
"21/08/22","10:30",0.0,28.5,83.5,1008.3,195.7,1.0,2.4,218.3,0.30,25.5,25.2,"10:26:16",1
"21/08/22","10:40",0.0,29.3,80.5,1008.3,176.7,1.3,2.7,180.8,0.37,25.6,25.3,"10:32:56",1
"21/08/22","10:50",0.0,29.6,78.3,1008.3,172.7,1.6,3.5,203.0,0.44,25.5,25.3,"10:41:28",1
"21/08/22","11:00",0.0,29.7,76.9,1008.3,181.7,1.3,2.4,195.1,0.30,25.3,25.2,"10:57:28",1
"21/08/22","11:10",0.0,29.7,77.1,1008.1,146.9,1.3,3.3,150.3,0.30,25.3,25.3,"11:04:08",1
"21/08/22","11:20",0.0,29.0,76.8,1007.6,194.7,1.2,2.5,233.7,0.14,24.6,25.6,"11:15:20",1
"21/08/22","11:30",0.0,29.1,77.6,1007.4,196.5,0.8,2.1,134.0,0.14,24.8,25.4,"11:24:00",1
"21/08/22","11:40",0.0,29.5,77.4,1007.6,38.9,0.3,1.2,123.8,0.14,25.2,25.6,"11:33:12",1
"21/08/22","11:50",0.0,29.7,76.4,1007.6,340.0,0.8,3.3,328.3,0.21,25.1,25.6,"11:47:52",1
"21/08/22","12:00",0.0,29.9,75.5,1007.4,312.9,1.5,2.8,339.1,0.32,25.1,25.7,"11:55:36",1
"21/08/22","12:10",0.0,30.3,73.7,1007.8,220.6,2.1,4.5,211.4,0.27,25.1,25.5,"12:09:28",1
"21/08/22","12:20",0.0,30.5,72.8,1007.6,223.2,3.1,5.2,201.2,0.28,25.1,25.5,"12:12:40",1
"21/08/22","12:30",0.0,30.7,72.3,1007.4,223.3,1.2,3.5,245.1,0.21,25.2,25.8,"12:20:08",1
"21/08/22","12:40",0.0,31.6,71.7,1007.8,234.9,1.1,3.3,241.4,0.42,25.9,26.0,"12:35:04",1
"21/08/22","12:50",0.0,31.2,71.2,1007.8,230.4,1.3,2.9,235.1,0.24,25.4,25.9,"12:41:28",1
"21/08/22","13:00",0.0,31.5,70.3,1008.1,214.3,2.5,6.3,201.9,0.51,25.5,25.9,"12:56:40",1
"21/08/22","13:10",0.0,31.7,68.6,1007.4,227.0,1.8,4.1,219.4,0.40,25.3,26.1,"13:03:20",1
"21/08/22","13:20",0.0,31.6,68.5,1007.8,296.4,1.1,2.9,335.8,0.27,25.1,26.0,"13:18:56",1
"21/08/22","13:30",0.0,32.7,67.0,1007.6,218.4,1.2,2.8,238.9,0.57,25.8,26.2,"13:23:44",1
"21/08/22","13:40",0.0,32.2,65.7,1008.3,236.0,1.7,4.1,223.2,0.35,25.0,26.1,"13:35:12",1
"21/08/22","13:50",0.0,31.4,68.7,1007.4,244.0,2.1,4.2,229.6,0.31,25.0,26.0,"13:43:04",1
"21/08/22","14:00",0.0,31.5,69.2,1007.6,245.1,1.5,4.7,226.2,0.33,25.2,26.4,"13:51:12",1
"21/08/22","14:10",0.0,32.2,68.5,1007.6,254.8,1.3,3.9,204.5,0.50,25.7,26.3,"14:07:44",1
"21/08/22","14:20",0.0,31.3,67.7,1007.6,246.4,2.0,5.0,226.8,0.22,24.6,26.3,"14:16:24",1
"21/08/22","14:30",0.0,30.8,69.6,1007.6,250.2,2.0,6.3,243.5,0.18,24.6,26.6,"14:22:00",1
"21/08/22","14:40",0.0,30.5,70.4,1007.1,243.1,2.1,4.4,237.1,0.17,24.5,26.4,"14:35:36",1
"21/08/22","14:50",0.0,30.2,71.9,1006.9,282.2,1.5,4.1,228.1,0.09,24.6,26.5,"14:40:40",1
"21/08/22","15:00",0.0,29.4,74.0,1006.7,272.7,1.0,4.7,227.5,0.06,24.3,26.5,"14:51:20",1
"21/08/22","15:10",0.2,28.7,76.5,1006.0,302.7,1.2,4.5,288.6,0.05,24.2,26.6,"15:02:32",1
"21/08/22","15:20",0.2,28.2,79.5,1005.0,336.8,1.2,2.5,313.3,0.04,24.4,26.4,"15:17:12",1
"21/08/22","15:30",0.0,27.8,81.5,1005.2,334.7,1.0,2.1,348.1,0.04,24.4,26.6,"15:25:44",1
"21/08/22","15:40",0.0,27.6,83.1,1005.2,331.9,1.0,1.9,350.7,0.05,24.5,26.6,"15:33:12",1
"21/08/22","15:50",0.2,27.3,84.2,1005.0,335.2,0.7,3.1,337.2,0.04,24.4,26.6,"15:49:12",1
"21/08/22","16:00",0.2,26.9,85.2,1005.5,328.1,1.0,2.7,339.2,0.02,24.2,26.7,"15:57:36",1
"21/08/22","16:10",0.2,26.8,86.3,1005.5,347.0,1.1,2.2,345.4,0.03,24.4,26.5,"16:04:48",1
"21/08/22","16:20",0.0,26.8,87.0,1006.0,43.6,0.6,1.4,20.9,0.04,24.5,26.6,"16:10:16",1
"21/08/22","16:30",0.0,26.7,87.5,1006.0,9.4,0.7,1.8,1.9,0.05,24.5,26.6,"16:20:02",1
"21/08/22","16:40",0.0,26.8,87.9,1006.0,330.6,0.7,1.7,8.2,0.04,24.7,26.6,"16:30:08",1
"21/08/22","16:50",0.0,26.8,88.2,1006.2,324.6,0.3,1.2,120.3,0.04,24.7,26.3,"16:44:24",1
"21/08/22","17:00",0.0,26.7,88.3,1006.7,335.4,1.0,2.5,352.8,0.04,24.6,26.4,"16:56:48",1
"21/08/22","17:10",0.0,26.6,88.4,1006.4,329.1,1.2,2.6,339.3,0.02,24.6,26.5,"17:00:24",1
"21/08/22","17:20",0.0,26.5,88.5,1006.4,332.9,1.1,3.4,352.9,0.01,24.5,26.4,"17:11:36",1
"21/08/22","17:30",0.0,26.5,88.6,1006.9,5.8,0.6,1.4,325.8,0.01,24.5,26.6,"17:20:32",1
"21/08/22","17:40",0.0,26.5,88.7,1007.1,314.6,1.0,1.8,345.4,0.01,24.5,26.3,"17:37:12",1
"21/08/22","17:50",0.2,26.4,88.9,1006.9,335.4,0.8,2.2,245.1,0.00,24.5,26.6,"17:49:04",1
"21/08/22","18:00",0.0,26.2,89.1,1007.4,332.6,0.7,1.6,344.8,0.00,24.3,26.3,"17:50:08",1
"21/08/22","18:10",0.2,26.2,89.3,1007.6,11.7,0.3,1.0,336.7,0.00,24.3,26.7,"18:03:20",1
"21/08/22","18:20",0.2,26.2,89.6,1007.1,18.5,0.7,1.2,344.8,0.00,24.4,26.6,"18:14:40",1
"21/08/22","18:30",0.2,25.9,90.0,1007.4,29.3,0.5,1.0,19.7,0.00,24.2,26.3,"18:28:16",1
"21/08/22","18:40",0.2,25.7,90.3,1007.6,352.6,0.5,1.1,16.5,0.00,24.0,26.6,"18:35:52",1
"21/08/22","18:50",0.2,25.5,90.5,1007.6,218.2,0.1,0.4,180.6,0.00,23.9,26.5,"18:48:24",1
"21/08/22","19:00",0.0,25.4,90.8,1007.6,16.8,0.3,0.9,348.0,0.00,23.8,26.4,"18:56:16",1
"21/08/22","19:10",0.2,25.4,91.0,1007.4,13.6,0.6,1.2,13.6,0.00,23.9,26.4,"19:03:20",1
"21/08/22","19:20",0.0,25.2,91.3,1007.1,273.3,0.3,1.0,349.4,0.00,23.7,26.3,"19:19:28",1
"21/08/22","19:30",0.0,25.2,91.6,1007.6,350.1,0.7,1.4,349.2,0.00,23.8,26.3,"19:23:12",1
"21/08/22","19:40",0.0,25.2,91.9,1007.4,343.1,1.1,2.0,345.5,0.00,23.8,26.4,"19:36:32",1
"21/08/22","19:50",0.0,25.2,92.2,1007.6,333.4,1.0,1.6,340.4,0.00,23.9,26.3,"19:46:48",1
"21/08/22","20:00",0.0,25.0,92.5,1007.4,330.4,0.8,2.1,345.6,0.00,23.7,26.2,"19:50:08",1
"21/08/22","20:10",0.0,24.9,92.7,1007.4,342.9,0.6,1.8,353.5,0.00,23.7,26.1,"20:03:52",1
"21/08/22","20:20",0.0,24.9,92.9,1007.8,199.4,0.3,1.1,356.7,0.00,23.7,26.4,"20:10:08",1
"21/08/22","20:30",0.0,24.9,93.1,1007.4,312.7,0.6,1.0,356.8,0.00,23.7,26.2,"20:29:04",1
"21/08/22","20:40",0.2,24.9,93.2,1007.8,34.4,0.5,1.0,336.7,0.00,23.8,26.2,"20:31:04",1
"21/08/22","20:50",0.0,24.8,93.4,1007.6,312.1,0.3,0.9,326.8,0.00,23.7,26.2,"20:44:48",1
"21/08/22","21:00",0.0,24.8,93.5,1007.8,339.2,0.3,1.0,3.3,0.00,23.7,26.2,"20:54:00",1
"21/08/22","21:10",0.0,24.8,93.6,1007.6,347.3,0.6,1.0,346.8,0.00,23.7,26.1,"21:01:12",1
"21/08/22","21:20",0.0,24.8,93.8,1007.4,338.3,0.5,0.9,357.6,0.00,23.8,26.1,"21:13:44",1
"21/08/22","21:30",0.0,24.7,93.8,1007.6,66.2,0.2,1.0,68.3,0.00,23.7,26.0,"21:28:08",1
"21/08/22","21:40",0.0,24.7,94.0,1007.6,274.3,0.5,1.0,325.1,0.00,23.7,26.2,"21:39:52",1
"21/08/22","21:50",0.0,24.6,94.1,1007.6,297.7,0.3,1.1,321.5,0.00,23.6,25.9,"21:41:20",1
"21/08/22","22:00",0.0,24.7,94.2,1007.4,304.1,0.3,0.9,327.7,0.00,23.7,26.0,"21:56:16",1
"21/08/22","22:10",0.0,24.6,94.2,1007.1,129.1,0.2,0.6,104.5,0.00,23.6,26.1,"22:07:36",1
"21/08/22","22:20",0.0,24.6,94.3,1007.4,6.5,0.6,1.2,347.8,0.00,23.7,26.1,"22:13:52",1
"21/08/22","22:30",0.0,24.6,94.4,1007.6,353.6,0.7,1.3,354.4,0.00,23.7,26.0,"22:22:56",1
"21/08/22","22:40",0.0,24.6,94.5,1007.1,339.0,0.3,1.1,335.7,0.00,23.7,25.9,"22:32:48",1
"21/08/22","22:50",0.0,24.6,94.6,1007.1,193.9,0.2,0.8,265.4,0.00,23.7,26.1,"22:49:36",1
"21/08/22","23:00",0.0,24.6,94.7,1007.1,354.1,0.6,1.2,349.4,0.00,23.7,26.2,"22:52:24",1
"21/08/22","23:10",0.0,24.6,94.8,1006.9,237.8,0.3,0.6,265.2,0.00,23.8,26.0,"23:07:52",1
"21/08/22","23:20",0.0,24.6,94.8,1007.4,325.2,0.6,1.1,343.0,0.00,23.8,25.9,"23:14:08",1
"21/08/22","23:30",0.0,24.6,94.9,1007.1,19.4,0.1,0.5,347.8,0.00,23.8,26.2,"23:20:08",1
"21/08/22","23:40",0.0,24.5,94.9,1007.4,90.9,0.2,0.9,240.2,0.00,23.7,26.0,"23:30:24",1
"21/08/22","23:50",0.0,24.5,94.9,1007.1,42.7,0.2,0.8,9.4,0.00,23.7,26.0,"23:48:40",1
"21/08/22","24:00",0.0,24.6,95.0,1007.4,322.4,0.7,1.2,348.6,0.00,23.8,25.8,"23:51:28",1
